| time (UTC) | temp F | wind direction | speed MPH | gust MPH | rain 1hr in | rain 24hr in | rain mn in | humidity % | barometer mb |
| 20260903062636 | 56 | 146 | 2.0 | 8.0 | 0.00 | 0.51 | 0.51 | 90 | 1018.8 |
| 20260903062136 | 56 | 152 | 2.0 | 8.0 | 0.00 | 0.51 | 0.51 | 90 | 1018.9 |
| 20260903061635 | 56 | 119 | 2.0 | 8.0 | 0.00 | 0.51 | 0.51 | 90 | 1019.0 |
| 20260903061142 | 56 | 147 | 2.0 | 6.0 | 0.00 | 0.51 | 0.51 | 90 | 1019.1 |
| 20260903060634 | 56 | 180 | 2.0 | 7.0 | 0.00 | 0.51 | 0.51 | 90 | 1019.0 |
| 20260903060133 | 57 | 161 | 2.0 | 8.0 | 0.00 | 0.51 | 0.51 | 90 | 1019.1 |
| 20260903055634 | 57 | 153 | 2.0 | 8.0 | 0.00 | 0.51 | 0.51 | 90 | 1019.0 |
| 20260903055135 | 57 | 177 | 2.0 | 7.0 | 0.00 | 0.51 | 0.51 | 90 | 1019.0 |
| 20260903054635 | 57 | 134 | 1.0 | 6.0 | 0.00 | 0.51 | 0.51 | 90 | 1019.0 |
| 20260903054131 | 57 | 171 | 2.0 | 7.0 | 0.00 | 0.51 | 0.51 | 90 | 1019.1 |
| 20260903053632 | 57 | 157 | 2.0 | 7.0 | 0.00 | 0.51 | 0.51 | 90 | 1019.1 |
| 20260903053127 | 57 | 164 | 2.0 | 5.0 | 0.00 | 0.51 | 0.51 | 90 | 1019.1 |
| 20260903052625 | 57 | 148 | 1.0 | 5.0 | 0.00 | 0.51 | 0.51 | 91 | 1019.1 |
| 20260903052124 | 57 | 152 | 2.0 | 6.0 | 0.00 | 0.51 | 0.51 | 91 | 1019.1 |
| 20260903051625 | 56 | 194 | 2.0 | 6.0 | 0.00 | 0.51 | 0.51 | 91 | 1019.0 |
| 20260903051124 | 56 | 146 | 2.0 | 6.0 | 0.00 | 0.51 | 0.51 | 91 | 1019.0 |
| 20260903050626 | 56 | 187 | 1.0 | 6.0 | 0.00 | 0.51 | 0.51 | 91 | 1018.9 |
| 20260903050121 | 56 | 134 | 2.0 | 8.0 | 0.00 | 0.51 | 0.51 | 91 | 1018.9 |
| 20260903045623 | 56 | 173 | 3.0 | 8.0 | 0.00 | 0.51 | 0.51 | 91 | 1018.9 |
| 20260903045121 | 56 | 138 | 2.0 | 7.0 | 0.00 | 0.51 | 0.51 | 91 | 1018.9 |
| 20260903044621 | 56 | 131 | 1.0 | 7.0 | 0.00 | 0.51 | 0.51 | 91 | 1018.7 |
| 20260903044123 | 56 | 126 | 1.0 | 5.0 | 0.00 | 0.51 | 0.51 | 91 | 1018.5 |
| 20260903043622 | 56 | 185 | 1.0 | 5.0 | 0.00 | 0.51 | 0.51 | 91 | 1018.4 |
| 20260903043123 | 56 | 157 | 3.0 | 8.0 | 0.00 | 0.51 | 0.51 | 91 | 1018.3 |
| 20260903042618 | 56 | 146 | 3.0 | 8.0 | 0.00 | 0.51 | 0.51 | 91 | 1018.3 |
| 20260903042118 | 56 | 158 | 3.0 | 10.0 | 0.00 | 0.51 | 0.51 | 91 | 1018.4 |
| 20260903041614 | 56 | 146 | 3.0 | 10.0 | 0.00 | 0.51 | 0.51 | 91 | 1018.3 |
| 20260903041106 | 56 | 161 | 3.0 | 10.0 | 0.00 | 0.51 | 0.51 | 90 | 1018.3 |
| 20260903040600 | 56 | 159 | 3.0 | 10.0 | 0.00 | 0.51 | 0.51 | 90 | 1018.3 |
| 20260903040059 | 56 | 188 | 4.0 | 10.0 | 0.00 | 0.51 | 0.51 | 90 | 1018.3 |
| 20260903035600 | 57 | 150 | 3.0 | 8.0 | 0.00 | 0.51 | 0.51 | 90 | 1018.3 |
| 20260903035100 | 57 | 148 | 2.0 | 8.0 | 0.00 | 0.51 | 0.51 | 90 | 1018.2 |
| 20260903034600 | 57 | 124 | 3.0 | 7.0 | 0.00 | 0.51 | 0.51 | 90 | 1018.1 |
| 20260903034100 | 57 | 144 | 3.0 | 8.0 | 0.00 | 0.51 | 0.51 | 90 | 1017.9 |
| 20260903033600 | 57 | 154 | 3.0 | 9.0 | 0.00 | 0.51 | 0.51 | 89 | 1017.9 |
| 20260903033056 | 57 | 127 | 3.0 | 9.0 | 0.00 | 0.51 | 0.51 | 90 | 1017.9 |
| 20260903032555 | 57 | 159 | 2.0 | 7.0 | 0.00 | 0.51 | 0.51 | 89 | 1018.0 |
| 20260903032056 | 57 | 173 | 2.0 | 7.0 | 0.00 | 0.51 | 0.51 | 89 | 1018.0 |
| 20260903031556 | 57 | 153 | 3.0 | 7.0 | 0.00 | 0.51 | 0.51 | 89 | 1017.9 |
| 20260903031055 | 58 | 176 | 3.0 | 7.0 | 0.00 | 0.51 | 0.51 | 89 | 1017.8 |
| 20260903030558 | 58 | 194 | 2.0 | 7.0 | 0.00 | 0.51 | 0.51 | 89 | 1017.7 |
| 20260903030051 | 58 | 174 | 2.0 | 6.0 | 0.00 | 0.51 | 0.51 | 89 | 1017.6 |
| 20260903025551 | 58 | 175 | 2.0 | 6.0 | 0.00 | 0.51 | 0.51 | 89 | 1017.4 |
| 20260903025052 | 58 | 182 | 2.0 | 6.0 | 0.00 | 0.51 | 0.51 | 89 | 1017.3 |
| 20260903024552 | 58 | 175 | 1.0 | 6.0 | 0.00 | 0.51 | 0.51 | 89 | 1017.4 |
| 20260903024051 | 58 | 155 | 2.0 | 7.0 | 0.00 | 0.51 | 0.51 | 89 | 1017.4 |
| 20260903023553 | 58 | 159 | 2.0 | 7.0 | 0.00 | 0.51 | 0.51 | 89 | 1017.4 |
| 20260903023047 | 58 | 124 | 2.0 | 8.0 | 0.01 | 0.51 | 0.51 | 90 | 1017.4 |
| 20260903022547 | 59 | 166 | 2.0 | 8.0 | 0.01 | 0.51 | 0.51 | 90 | 1017.5 |
| 20260903022047 | 59 | 150 | 2.0 | 6.0 | 0.01 | 0.51 | 0.51 | 90 | 1017.5 |
| 20260903021547 | 59 | 215 | 2.0 | 7.0 | 0.01 | 0.51 | 0.51 | 90 | 1017.4 |
| 20260903021047 | 59 | 153 | 2.0 | 7.0 | 0.01 | 0.51 | 0.51 | 90 | 1017.3 |
| 20260903020547 | 59 | 104 | 2.0 | 5.0 | 0.01 | 0.51 | 0.51 | 90 | 1017.2 |
| 20260903020045 | 59 | 161 | 2.0 | 7.0 | 0.01 | 0.51 | 0.51 | 90 | 1017.2 |
| 20260903015545 | 59 | 188 | 3.0 | 7.0 | 0.01 | 0.51 | 0.51 | 90 | 1017.2 |
| 20260903015045 | 59 | 171 | 3.0 | 6.0 | 0.01 | 0.51 | 0.51 | 90 | 1017.1 |
| 20260903014545 | 59 | 157 | 2.0 | 6.0 | 0.02 | 0.51 | 0.51 | 90 | 1017.1 |
| 20260903014045 | 59 | 175 | 2.0 | 6.0 | 0.03 | 0.51 | 0.51 | 90 | 1017.0 |
| 20260903013545 | 59 | 162 | 2.0 | 6.0 | 0.04 | 0.51 | 0.51 | 90 | 1016.9 |
| 20260903013046 | 59 | 157 | 2.0 | 6.0 | 0.03 | 0.50 | 0.50 | 89 | 1016.9 |
| 20260903012543 | 59 | 221 | 2.0 | 5.0 | 0.03 | 0.50 | 0.50 | 89 | 1017.1 |
| 20260903012041 | 59 | 192 | 2.0 | 7.0 | 0.03 | 0.50 | 0.50 | 89 | 1016.9 |
| 20260903011542 | 59 | 155 | 2.0 | 7.0 | 0.03 | 0.50 | 0.50 | 89 | 1016.9 |
| 20260903011041 | 60 | 185 | 2.0 | 7.0 | 0.03 | 0.50 | 0.50 | 89 | 1016.8 |
| 20260903010539 | 60 | 202 | 2.0 | 6.0 | 0.03 | 0.50 | 0.50 | 89 | 1016.9 |
| 20260903010039 | 60 | 157 | 2.0 | 6.0 | 0.03 | 0.50 | 0.50 | 89 | 1016.7 |
| 20260903005535 | 60 | 217 | 2.0 | 6.0 | 0.03 | 0.50 | 0.50 | 89 | 1016.6 |
| 20260903005035 | 60 | 182 | 2.0 | 5.0 | 0.03 | 0.50 | 0.50 | 89 | 1016.6 |
| 20260903004536 | 60 | 153 | 1.0 | 7.0 | 0.02 | 0.49 | 0.49 | 89 | 1016.7 |
| 20260903004035 | 60 | 241 | 1.0 | 7.0 | 0.01 | 0.48 | 0.48 | 89 | 1016.7 |
| 20260903003533 | 61 | 161 | 1.0 | 4.0 | 0.00 | 0.47 | 0.47 | 90 | 1016.7 |
| 20260903003033 | 61 | 159 | 1.0 | 6.0 | 0.00 | 0.47 | 0.47 | 90 | 1016.5 |
| 20260903002527 | 61 | 159 | 1.0 | 6.0 | 0.00 | 0.47 | 0.47 | 90 | 1016.6 |
| 20260903002026 | 61 | 186 | 1.0 | 5.0 | 0.00 | 0.47 | 0.47 | 90 | 1016.7 |
| 20260903001523 | 61 | 159 | 2.0 | 5.0 | 0.01 | 0.47 | 0.47 | 90 | 1016.5 |
| 20260903001021 | 61 | 150 | 1.0 | 5.0 | 0.08 | 0.47 | 0.47 | 90 | 1016.4 |
| 20260903000521 | 61 | 111 | 1.0 | 5.0 | 0.09 | 0.47 | 0.47 | 91 | 1016.4 |
| 20260903000015 | 60 | 154 | 1.0 | 5.0 | 0.10 | 0.47 | 0.47 | 91 | 1016.3 |
| 20260902235515 | 60 | 186 | 1.0 | 4.0 | 0.10 | 0.47 | 0.47 | 91 | 1016.4 |
| 20260902235015 | 60 | 146 | 1.0 | 4.0 | 0.11 | 0.47 | 0.47 | 91 | 1016.3 |
| 20260902234516 | 60 | 169 | 1.0 | 4.0 | 0.12 | 0.47 | 0.47 | 91 | 1016.2 |
| 20260902234015 | 60 | 179 | 1.0 | 4.0 | 0.13 | 0.47 | 0.47 | 91 | 1016.2 |
| 20260902233516 | 59 | 184 | 1.0 | 5.0 | 0.13 | 0.47 | 0.47 | 91 | 1016.2 |
| 20260902233014 | 59 | 168 | 2.0 | 5.0 | 0.14 | 0.47 | 0.47 | 91 | 1016.2 |
| 20260902232511 | 59 | 165 | 1.0 | 8.0 | 0.14 | 0.47 | 0.47 | 91 | 1016.1 |
| 20260902232012 | 59 | 150 | 2.0 | 8.0 | 0.14 | 0.47 | 0.47 | 91 | 1016.1 |
| 20260902231511 | 59 | 186 | 3.0 | 9.0 | 0.13 | 0.45 | 0.45 | 91 | 1016.1 |
| 20260902231009 | 59 | 253 | 3.0 | 9.0 | 0.07 | 0.39 | 0.40 | 91 | 1016.1 |
| 20260902230510 | 59 | 219 | 4.0 | 11.0 | 0.06 | 0.38 | 0.38 | 91 | 1016.0 |
| 20260902230003 | 59 | 141 | 4.0 | 11.0 | 0.05 | 0.37 | 0.37 | 90 | 1015.9 |
| 20260902225503 | 59 | 169 | 4.0 | 10.0 | 0.05 | 0.37 | 0.37 | 90 | 1015.7 |
| 20260902225003 | 60 | 171 | 4.0 | 10.0 | 0.04 | 0.36 | 0.36 | 90 | 1015.7 |
| 20260902224503 | 60 | 151 | 4.0 | 10.0 | 0.04 | 0.35 | 0.35 | 90 | 1015.6 |
| 20260902224003 | 60 | 201 | 3.0 | 9.0 | 0.03 | 0.34 | 0.34 | 90 | 1015.6 |
| 20260902223504 | 60 | 187 | 3.0 | 7.0 | 0.03 | 0.34 | 0.34 | 90 | 1015.5 |
| 20260902223001 | 60 | 141 | 3.0 | 10.0 | 0.02 | 0.33 | 0.33 | 90 | 1015.5 |
| 20260902222459 | 60 | 174 | 4.0 | 10.0 | 0.02 | 0.33 | 0.33 | 90 | 1015.4 |
| 20260902222000 | 60 | 215 | 4.0 | 14.0 | 0.03 | 0.33 | 0.33 | 90 | 1015.5 |
| 20260902221459 | 60 | 221 | 4.0 | 14.0 | 0.02 | 0.32 | 0.32 | 90 | 1015.4 |
| 20260902220956 | 60 | 151 | 4.0 | 13.0 | 0.02 | 0.32 | 0.32 | 90 | 1015.5 |
| 20260902220458 | 60 | 184 | 4.0 | 13.0 | 0.02 | 0.32 | 0.32 | 90 | 1015.5 |
| 20260902215951 | 60 | 176 | 4.0 | 14.0 | 0.02 | 0.32 | 0.32 | 90 | 1015.4 |
| 20260902215451 | 60 | 166 | 4.0 | 14.0 | 0.03 | 0.32 | 0.32 | 89 | 1015.5 |
| 20260902214951 | 60 | 134 | 5.0 | 14.0 | 0.03 | 0.32 | 0.32 | 89 | 1015.4 |
| 20260902214451 | 60 | 170 | 5.0 | 13.0 | 0.02 | 0.31 | 0.31 | 89 | 1015.3 |
| 20260902213951 | 60 | 171 | 4.0 | 11.0 | 0.02 | 0.31 | 0.31 | 89 | 1015.4 |
| 20260902213451 | 60 | 148 | 5.0 | 12.0 | 0.02 | 0.31 | 0.31 | 89 | 1015.4 |
| 20260902212946 | 60 | 148 | 5.0 | 13.0 | 0.02 | 0.31 | 0.31 | 89 | 1015.3 |
| 20260902212445 | 60 | 110 | 5.0 | 14.0 | 0.02 | 0.31 | 0.31 | 89 | 1015.2 |
| 20260902211945 | 60 | 192 | 5.0 | 14.0 | 0.01 | 0.30 | 0.30 | 89 | 1015.3 |
| 20260902211448 | 60 | 160 | 5.0 | 14.0 | 0.01 | 0.30 | 0.30 | 89 | 1015.3 |
| 20260902210944 | 60 | 157 | 5.0 | 14.0 | 0.01 | 0.30 | 0.30 | 88 | 1015.4 |
| 20260902210446 | 60 | 146 | 5.0 | 14.0 | 0.01 | 0.30 | 0.30 | 89 | 1015.3 |
| 20260902205940 | 60 | 219 | 5.0 | 16.0 | 0.01 | 0.30 | 0.30 | 89 | 1015.4 |
| 20260902205439 | 60 | 176 | 4.0 | 16.0 | 0.00 | 0.29 | 0.29 | 88 | 1015.3 |
| 20260902204939 | 60 | 186 | 4.0 | 14.0 | 0.00 | 0.29 | 0.29 | 88 | 1015.2 |
| 20260902204443 | 60 | 190 | 3.0 | 13.0 | 0.01 | 0.29 | 0.29 | 88 | 1015.1 |
| 20260902203939 | 60 | 179 | 3.0 | 13.0 | 0.01 | 0.29 | 0.29 | 88 | 1015.2 |
| 20260902203440 | 60 | 208 | 3.0 | 9.0 | 0.01 | 0.29 | 0.29 | 88 | 1015.0 |
| 20260902202936 | 60 | 197 | 4.0 | 9.0 | 0.01 | 0.29 | 0.29 | 89 | 1015.0 |
| 20260902202435 | 60 | 145 | 4.0 | 12.0 | 0.02 | 0.29 | 0.29 | 89 | 1014.8 |
| 20260902201934 | 60 | 151 | 4.0 | 12.0 | 0.02 | 0.29 | 0.29 | 89 | 1014.8 |
| 20260902201433 | 60 | 151 | 4.0 | 9.0 | 0.03 | 0.29 | 0.29 | 89 | 1014.6 |
| 20260902200931 | 60 | 185 | 3.0 | 9.0 | 0.03 | 0.29 | 0.29 | 89 | 1014.7 |
| 20260902200432 | 60 | 163 | 3.0 | 10.0 | 0.04 | 0.29 | 0.29 | 90 | 1014.7 |
| 20260902195928 | 60 | 221 | 4.0 | 10.0 | 0.04 | 0.29 | 0.29 | 90 | 1014.7 |
| 20260902195428 | 60 | 157 | 4.0 | 10.0 | 0.05 | 0.29 | 0.29 | 90 | 1014.6 |
| 20260902194928 | 60 | 139 | 4.0 | 11.0 | 0.06 | 0.29 | 0.29 | 90 | 1014.5 |
| 20260902194428 | 60 | 168 | 3.0 | 11.0 | 0.06 | 0.28 | 0.29 | 90 | 1014.6 |
| 20260902193930 | 59 | 140 | 3.0 | 10.0 | 0.07 | 0.28 | 0.28 | 90 | 1014.5 |
| 20260902193429 | 59 | 162 | 3.0 | 14.0 | 0.08 | 0.28 | 0.28 | 90 | 1014.6 |
| 20260902192929 | 59 | 207 | 3.0 | 14.0 | 0.10 | 0.28 | 0.28 | 90 | 1014.6 |
| 20260902192426 | 59 | 148 | 4.0 | 14.0 | 0.10 | 0.27 | 0.27 | 90 | 1014.6 |
| 20260902191928 | 59 | 151 | 3.0 | 14.0 | 0.13 | 0.27 | 0.27 | 90 | 1014.7 |
| 20260902191427 | 59 | 155 | 3.0 | 12.0 | 0.14 | 0.26 | 0.26 | 90 | 1014.6 |
| 20260902190926 | 59 | 144 | 3.0 | 11.0 | 0.15 | 0.26 | 0.26 | 90 | 1014.7 |
| 20260902190426 | 59 | 124 | 2.0 | 10.0 | 0.16 | 0.25 | 0.26 | 90 | 1014.7 |
| 20260902185924 | 59 | 125 | 3.0 | 10.0 | 0.17 | 0.25 | 0.25 | 90 | 1014.6 |
| 20260902185425 | 59 | 110 | 3.0 | 10.0 | 0.16 | 0.24 | 0.24 | 90 | 1014.7 |
| 20260902184920 | 59 | 93 | 2.0 | 6.0 | 0.15 | 0.23 | 0.23 | 90 | 1014.8 |
| 20260902184420 | 59 | 132 | 2.0 | 9.0 | 0.14 | 0.22 | 0.22 | 90 | 1014.9 |
| 20260902183919 | 59 | 98 | 2.0 | 9.0 | 0.13 | 0.21 | 0.21 | 90 | 1014.8 |
| 20260902183418 | 59 | 117 | 2.0 | 6.0 | 0.12 | 0.20 | 0.20 | 90 | 1014.9 |
| 20260902182916 | 59 | 175 | 3.0 | 10.0 | 0.11 | 0.18 | 0.18 | 89 | 1015.1 |
| 20260902182418 | 59 | 79 | 3.0 | 10.0 | 0.10 | 0.17 | 0.17 | 89 | 1015.3 |
| 20260902181912 | 59 | 136 | 3.0 | 8.0 | 0.08 | 0.15 | 0.14 | 89 | 1015.1 |
| 20260902181406 | 59 | 132 | 2.0 | 7.0 | 0.07 | 0.13 | 0.12 | 89 | 1015.2 |
| 20260902180900 | 59 | 142 | 3.0 | 9.0 | 0.07 | 0.12 | 0.11 | 89 | 1015.0 |
| 20260902180354 | 59 | 147 | 3.0 | 9.0 | 0.06 | 0.10 | 0.09 | 89 | 1015.1 |
| 20260902175850 | 59 | 117 | 3.0 | 11.0 | 0.05 | 0.09 | 0.09 | 89 | 1015.3 |
| 20260902175350 | 59 | 171 | 3.0 | 11.0 | 0.06 | 0.09 | 0.08 | 89 | 1015.2 |
| 20260902174851 | 59 | 110 | 3.0 | 10.0 | 0.07 | 0.09 | 0.08 | 89 | 1015.2 |
| 20260902174350 | 59 | 152 | 3.0 | 7.0 | 0.07 | 0.09 | 0.08 | 89 | 1015.4 |
| 20260902173851 | 59 | 122 | 2.0 | 7.0 | 0.07 | 0.09 | 0.08 | 89 | 1015.4 |
| 20260902173351 | 59 | 162 | 2.0 | 7.0 | 0.08 | 0.09 | 0.08 | 89 | 1015.4 |
| 20260902172847 | 59 | 157 | 2.0 | 7.0 | 0.07 | 0.08 | 0.07 | 89 | 1015.5 |
| 20260902172346 | 59 | 146 | 2.0 | 7.0 | 0.07 | 0.08 | 0.07 | 89 | 1015.6 |
| 20260902171848 | 59 | 174 | 2.0 | 7.0 | 0.06 | 0.07 | 0.06 | 88 | 1015.7 |
| 20260902171346 | 59 | 194 | 2.0 | 6.0 | 0.05 | 0.06 | 0.05 | 88 | 1015.7 |
| 20260902170846 | 60 | 149 | 2.0 | 11.0 | 0.04 | 0.05 | 0.04 | 88 | 1015.7 |
| 20260902170347 | 60 | 207 | 3.0 | 11.0 | 0.03 | 0.04 | 0.04 | 87 | 1015.8 |
| 20260902165842 | 60 | 173 | 2.0 | 9.0 | 0.03 | 0.04 | 0.03 | 87 | 1015.6 |
| 20260902165342 | 60 | 237 | 2.0 | 9.0 | 0.02 | 0.03 | 0.02 | 86 | 1015.6 |
| 20260902164844 | 61 | 179 | 2.0 | 7.0 | 0.01 | 0.02 | 0.01 | 86 | 1015.5 |
| 20260902164648 | 62 | 211 | 2.0 | 8.0 | 0.01 | 0.02 | 0.01 | 84 | 1015.4 |
| 20260902164613 | 61 | 179 | 3.0 | 8.0 | 0.01 | 0.02 | 0.01 | 85 | 1015.4 |
| 20260902163449 | 62 | 180 | 1.0 | 4.0 | 0.00 | 0.01 | 0.00 | 83 | 1015.1 |
| 20260902163400 | 62 | 240 | 2.0 | 4.0 | 0.00 | 0.01 | 0.00 | 83 | 1015.3 |
| 20260902163344 | 62 | 190 | 2.0 | 5.0 | 0.00 | 0.01 | 0.00 | 84 | 1015.3 |
| 20260902163247 | 62 | 203 | 0.0 | 3.0 | 0.00 | 0.01 | 0.00 | 83 | 1015.1 |
| 20260902144608 | 60 | 142 | 0.0 | 3.0 | 0.00 | 0.01 | 0.00 | 85 | 1015.7 |
| 20260902144426 | 60 | 150 | 1.0 | 4.0 | 0.00 | 0.01 | 0.00 | 85 | 1015.9 |
| 20260902131810 | 60 | 142 | 0.0 | 4.0 | 0.00 | 0.01 | 0.00 | 84 | 1016.5 |
| 20260902131310 | 60 | 144 | 0.0 | 2.0 | 0.00 | 0.01 | 0.00 | 84 | 1016.7 |
| 20260902130804 | 60 | 119 | 0.0 | 2.0 | 0.00 | 0.01 | 0.00 | 84 | 1016.6 |
| 20260902130304 | 60 | 118 | 0.0 | 3.0 | 0.00 | 0.01 | 0.00 | 84 | 1016.8 |
| 20260902125804 | 61 | 119 | 1.0 | 3.0 | 0.00 | 0.01 | 0.00 | 83 | 1016.9 |
| 20260902125306 | 61 | 96 | 1.0 | 5.0 | 0.00 | 0.01 | 0.00 | 83 | 1017.0 |
| 20260902124804 | 61 | 136 | 2.0 | 5.0 | 0.00 | 0.01 | 0.00 | 83 | 1017.0 |
| 20260902124305 | 61 | 113 | 2.0 | 5.0 | 0.00 | 0.01 | 0.00 | 83 | 1017.0 |
| 20260902123802 | 61 | 149 | 2.0 | 6.0 | 0.00 | 0.01 | 0.00 | 83 | 1017.1 |
| 20260902123302 | 61 | 163 | 1.0 | 7.0 | 0.00 | 0.01 | 0.00 | 83 | 1017.1 |
| 20260902122803 | 61 | 126 | 1.0 | 7.0 | 0.00 | 0.01 | 0.00 | 83 | 1017.1 |
| 20260902122301 | 61 | 138 | 1.0 | 3.0 | 0.00 | 0.01 | 0.00 | 83 | 1017.3 |
| 20260902121758 | 61 | 138 | 1.0 | 3.0 | 0.00 | 0.01 | 0.00 | 83 | 1017.4 |
| 20260902121259 | 61 | 137 | 1.0 | 3.0 | 0.00 | 0.01 | 0.00 | 83 | 1017.4 |
| 20260902120752 | 61 | 129 | 1.0 | 5.0 | 0.00 | 0.01 | 0.00 | 83 | 1017.6 |
| 20260902120251 | 61 | 152 | 1.0 | 5.0 | 0.00 | 0.01 | 0.00 | 83 | 1017.7 |
| 20260902115752 | 60 | 123 | 1.0 | 5.0 | 0.00 | 0.01 | 0.00 | 83 | 1017.6 |
| 20260902115252 | 60 | 147 | 2.0 | 8.0 | 0.00 | 0.01 | 0.00 | 83 | 1017.7 |
| 20260902114752 | 60 | 203 | 2.0 | 8.0 | 0.00 | 0.01 | 0.00 | 83 | 1017.8 |
| 20260902114257 | 60 | 152 | 2.0 | 5.0 | 0.00 | 0.01 | 0.00 | 84 | 1017.9 |
| 20260902113747 | 60 | 157 | 2.0 | 4.0 | 0.00 | 0.01 | 0.00 | 84 | 1017.9 |
| 20260902113245 | 60 | 132 | 1.0 | 4.0 | 0.00 | 0.01 | 0.00 | 84 | 1018.0 |
| 20260902112746 | 60 | 148 | 1.0 | 5.0 | 0.00 | 0.01 | 0.00 | 85 | 1018.1 |
| 20260902112247 | 60 | 169 | 2.0 | 5.0 | 0.00 | 0.01 | 0.00 | 85 | 1018.2 |
| 20260902111746 | 60 | 146 | 1.0 | 5.0 | 0.00 | 0.01 | 0.00 | 85 | 1018.2 |
| 20260902111247 | 60 | 156 | 1.0 | 7.0 | 0.00 | 0.01 | 0.00 | 85 | 1018.1 |
| 20260902110740 | 60 | 155 | 2.0 | 7.0 | 0.00 | 0.01 | 0.00 | 85 | 1018.2 |
| 20260902110237 | 60 | 126 | 2.0 | 8.0 | 0.00 | 0.01 | 0.00 | 85 | 1018.4 |
| 20260902105738 | 60 | 124 | 2.0 | 8.0 | 0.00 | 0.01 | 0.00 | 85 | 1018.4 |
| 20260902105239 | 60 | 152 | 2.0 | 7.0 | 0.00 | 0.01 | 0.00 | 85 | 1018.7 |
| 20260902104737 | 60 | 153 | 2.0 | 7.0 | 0.00 | 0.01 | 0.00 | 85 | 1018.5 |
| 20260902104239 | 59 | 204 | 1.0 | 7.0 | 0.00 | 0.01 | 0.00 | 85 | 1018.8 |
| 20260902103737 | 59 | 150 | 1.0 | 4.0 | 0.00 | 0.01 | 0.00 | 85 | 1018.9 |
| 20260902103234 | 59 | 144 | 2.0 | 7.0 | 0.00 | 0.01 | 0.00 | 85 | 1019.0 |
| 20260902102735 | 59 | 136 | 2.0 | 7.0 | 0.00 | 0.01 | 0.00 | 86 | 1018.9 |
| 20260902102233 | 59 | 161 | 1.0 | 7.0 | 0.00 | 0.01 | 0.00 | 86 | 1018.9 |
| 20260902101732 | 59 | 142 | 1.0 | 7.0 | 0.00 | 0.01 | 0.00 | 86 | 1019.0 |
| 20260902101232 | 59 | 142 | 1.0 | 6.0 | 0.00 | 0.01 | 0.00 | 86 | 1019.2 |
| 20260902100727 | 59 | 141 | 1.0 | 5.0 | 0.00 | 0.01 | 0.00 | 86 | 1019.1 |
| 20260902100227 | 59 | 159 | 2.0 | 5.0 | 0.00 | 0.01 | 0.00 | 86 | 1019.1 |
| 20260902095726 | 59 | 150 | 1.0 | 5.0 | 0.00 | 0.01 | 0.00 | 86 | 1019.2 |
| 20260902095223 | 59 | 181 | 0.0 | 4.0 | 0.00 | 0.01 | 0.00 | 86 | 1019.3 |
| 20260902094724 | 59 | 130 | 0.0 | 2.0 | 0.00 | 0.01 | 0.00 | 86 | 1019.3 |
| 20260902094224 | 59 | 130 | 0.0 | 4.0 | 0.00 | 0.01 | 0.00 | 86 | 1019.2 |
| 20260902093717 | 59 | 132 | 0.0 | 4.0 | 0.00 | 0.01 | 0.00 | 85 | 1019.2 |
| 20260902093219 | 59 | 144 | 0.0 | 1.0 | 0.00 | 0.01 | 0.00 | 85 | 1019.3 |
| 20260902092718 | 59 | 143 | 0.0 | 1.0 | 0.00 | 0.01 | 0.00 | 85 | 1019.4 |
| 20260902092217 | 59 | 143 | 0.0 | 1.0 | 0.00 | 0.01 | 0.00 | 84 | 1019.4 |
| 20260902091718 | 60 | 143 | 0.0 | 2.0 | 0.00 | 0.01 | 0.00 | 84 | 1019.4 |
| 20260902091219 | 60 | 144 | 0.0 | 3.0 | 0.00 | 0.01 | 0.00 | 84 | 1019.5 |
| 20260902090713 | 60 | 143 | 0.0 | 3.0 | 0.00 | 0.01 | 0.00 | 83 | 1019.6 |
| 20260902090214 | 60 | 131 | 0.0 | 3.0 | 0.00 | 0.01 | 0.00 | 83 | 1019.6 |
| 20260902085712 | 60 | 132 | 1.0 | 3.0 | 0.00 | 0.01 | 0.00 | 83 | 1019.7 |
| 20260902085212 | 60 | 141 | 1.0 | 4.0 | 0.00 | 0.01 | 0.00 | 83 | 1019.7 |
| 20260902084712 | 60 | 142 | 2.0 | 6.0 | 0.00 | 0.01 | 0.00 | 83 | 1019.9 |
| 20260902084211 | 60 | 150 | 1.0 | 6.0 | 0.00 | 0.01 | 0.00 | 83 | 1019.8 |
| 20260902083706 | 60 | 185 | 1.0 | 6.0 | 0.00 | 0.01 | 0.00 | 83 | 1019.9 |
| 20260902083205 | 60 | 162 | 1.0 | 6.0 | 0.00 | 0.01 | 0.00 | 83 | 1019.8 |
| 20260902082707 | 60 | 154 | 1.0 | 5.0 | 0.00 | 0.01 | 0.00 | 83 | 1020.0 |
| 20260902082207 | 60 | 168 | 0.0 | 3.0 | 0.00 | 0.01 | 0.00 | 83 | 1020.0 |
| 20260902081704 | 60 | 166 | 1.0 | 3.0 | 0.00 | 0.01 | 0.00 | 83 | 1020.0 |
| 20260902081204 | 60 | 161 | 1.0 | 3.0 | 0.00 | 0.01 | 0.00 | 83 | 1020.1 |
| 20260902080659 | 60 | 157 | 1.0 | 5.0 | 0.00 | 0.01 | 0.00 | 83 | 1020.0 |
| 20260902080153 | 60 | 169 | 1.0 | 5.0 | 0.00 | 0.01 | 0.00 | 83 | 1020.1 |
| 20260902075645 | 60 | 191 | 1.0 | 3.0 | 0.00 | 0.01 | 0.00 | 83 | 1020.1 |
| 20260902075146 | 60 | 197 | 1.0 | 5.0 | 0.00 | 0.01 | 0.00 | 83 | 1020.0 |
| 20260902074645 | 60 | 167 | 2.0 | 5.0 | 0.00 | 0.01 | 0.00 | 83 | 1020.0 |
| 20260902074147 | 60 | 188 | 2.0 | 5.0 | 0.00 | 0.01 | 0.00 | 83 | 1019.8 |
| 20260902073647 | 60 | 192 | 2.0 | 6.0 | 0.00 | 0.01 | 0.00 | 83 | 1019.8 |
| 20260902073145 | 60 | 171 | 2.0 | 6.0 | 0.00 | 0.01 | 0.00 | 83 | 1019.9 |
| 20260902072647 | 60 | 173 | 2.0 | 8.0 | 0.00 | 0.01 | 0.00 | 83 | 1020.0 |
| 20260902072144 | 60 | 196 | 2.0 | 8.0 | 0.00 | 0.01 | 0.00 | 84 | 1020.0 |
| 20260902071640 | 60 | 161 | 2.0 | 6.0 | 0.00 | 0.01 | 0.00 | 84 | 1020.2 |
| 20260902071140 | 60 | 167 | 2.0 | 4.0 | 0.00 | 0.01 | 0.00 | 84 | 1020.0 |
| 20260902070639 | 60 | 190 | 2.0 | 7.0 | 0.00 | 0.01 | 0.00 | 84 | 1020.2 |
| 20260902070140 | 60 | 223 | 2.0 | 7.0 | 0.00 | 0.01 | 0.00 | 84 | 1020.2 |
| 20260902065641 | 60 | 162 | 2.0 | 7.0 | 0.00 | 0.01 | 0.01 | 84 | 1020.3 |
| 20260902065138 | 61 | 151 | 2.0 | 7.0 | 0.00 | 0.01 | 0.01 | 84 | 1020.3 |
| 20260902064635 | 61 | 147 | 2.0 | 6.0 | 0.00 | 0.01 | 0.01 | 84 | 1020.4 |
| 20260902064136 | 61 | 174 | 2.0 | 7.0 | 0.00 | 0.01 | 0.01 | 84 | 1020.3 |
| 20260902063631 | 61 | 177 | 2.0 | 7.0 | 0.00 | 0.01 | 0.01 | 84 | 1020.3 |
| 20260902063129 | 61 | 207 | 2.0 | 6.0 | 0.00 | 0.01 | 0.01 | 83 | 1020.4 |